Snowfall_Accumulation
0.0 0.0 0.0 0.0 0.0 0.0 0.0 0.0 0.0 0.0 0.0 0.0 0.0 0.0 0.0 0.0 0.0 0.0 0.0 0.0 0.0 0.0 0.0 0.0 0.0 0.0 0.0 0.0 0.0 0.0 0.0 0.0 0.0 0.0 0.0 0.0 0.0 0.0 0.0 0.0 0.0 0.0 0.0 0.0
0.0 0.0 0.0 0.0 0.0 0.0 0.0 0.0 0.0 0.0 0.0 0.0 0.0 0.0 0.0 0.0 0.0 0.0 0.0 0.0 0.0 0.0 0.0 0.0 0.0 0.0 0.0 0.0 0.0 0.0 0.0 0.0 0.0 0.0 0.0 0.0 0.0 0.0 0.0 0.0 0.0 0.0 0.0 0.0
0.0 0.0 0.0 0.0 0.0 0.0 0.0 0.0 0.0 0.0 0.0 0.0 0.0 0.0 0.0 0.0 0.0 0.0 0.0 0.0 0.0 0.0 0.0 0.0 0.0 0.0 0.0 0.0 0.0 0.0 0.0 0.0 0.0 0.0 0.0 0.0 0.0 0.0 0.0 0.0 0.0 0.0 0.0 0.0
0.0 0.0 0.0 0.0 0.0 0.0 0.0 0.0 0.0 0.0 0.0 0.0 0.0 0.0 0.0 0.0 0.0 0.0 0.0 0.0 0.0 0.0 0.0 0.0 0.0 0.0 0.0 0.0 0.0 0.0 0.0 0.0 0.0 0.0 0.0 0.0 0.0 0.0 0.0 0.0 0.0 0.0 0.0 0.0
0.0 0.0 0.0 0.0 0.0 0.0 0.0 0.0 0.0 0.0 0.0 0.0 0.0 0.1 0.0 0.0 0.0 0.0 0.0 0.0 0.0 0.0 0.0 0.0 0.0 0.0 0.0 0.0 0.0 0.0 0.0 0.0 0.0 0.0 0.0 0.0 0.0 0.0 0.0 0.0 0.0 0.0 0.0 0.0
0.0 0.0 0.0 0.0 0.0 0.0 0.0 0.0 0.0 0.0 0.3 0.2 0.0 0.0 0.0 0.0 0.0 0.0 0.0 0.0 0.0 0.0 0.0 0.0 0.0 0.0 0.0 0.0 0.0 0.0 0.0 0.0 0.0 0.0 0.0 0.0 0.0 0.0 0.0 0.0 0.0 0.0 0.0 0.0
0.0 0.0 0.0 0.0 0.0 0.0 0.0 0.0 4.4 2.9 1.4 0.1 0.0 0.0 0.0 0.3 0.5 0.6 0.5 0.0 0.0 0.0 0.0 0.0 0.0 0.0 0.0 0.0 0.0 0.0 0.0 0.0 0.0 0.0 0.0 0.0 0.0 0.0 0.0 0.1 0.1 0.1 0.1 0.1
1.1 0.4 0.0 0.0 0.0 0.1 0.0 0.0 0.6 3.0 1.0 0.0 0.0 0.1 0.2 0.0 0.0 0.0 0.7 0.3 0.0 0.0 0.0 0.0 0.0 0.0 0.0 0.0 0.0 0.0 0.0 0.0 0.0 0.0 0.0 0.0 0.0 0.0 0.2 0.2 0.3 0.3 0.5 0.5
2.2 0.1 0.0 0.0 0.0 0.0 0.0 1.2 0.4 4.4 1.3 1.2 0.6 0.0 0.0 0.0 1.1 0.0 0.6 0.4 0.2 0.1 0.2 0.1 0.0 0.0 0.0 0.0 0.0 0.1 0.0 0.0 0.0 0.0 0.0 0.0 0.1 0.3 0.4 0.3 0.4 0.5 0.6 0.8
0.5 7.8 0.0 0.0 0.0 0.0 0.0 0.0 4.1 7.8 15.1 7.1 1.9 2.8 9.2 5.4 1.9 2.7 3.3 2.8 2.4 2.4 1.5 1.5 0.3 0.3 0.1 0.0 0.0 0.2 0.1 0.3 0.5 0.3 0.1 0.2 0.2 0.6 1.0 0.9 1.2 1.2 1.0 1.6
0.9 5.9 1.6 0.0 0.4 0.5 0.6 2.0 1.9 2.8 8.2 11.4 9.0 14.1 13.4 10.2 4.6 3.9 3.1 2.6 3.2 3.0 3.1 5.1 5.9 2.3 2.8 3.6 1.2 1.6 2.5 1.2 0.5 0.2 0.3 0.7 1.2 2.2 1.9 2.2 2.1 1.9 1.9 1.9
1.2 6.3 8.5 1.0 0.0 0.0 0.0 4.7 7.8 30.6 26.2 17.9 15.2 23.1 11.1 9.2 9.2 2.6 0.9 0.2 0.2 2.3 2.4 3.9 9.3 10.6 9.0 9.0 7.5 5.6 1.7 1.0 0.5 0.7 0.6 2.1 2.7 2.5 2.4 2.5 2.3 2.5 2.5 2.3
4.3 6.7 10.5 5.0 1.1 0.1 4.6 5.3 6.1 10.5 25.2 25.7 26.1 23.3 7.0 6.6 2.3 0.3 0.3 0.1 0.0 0.8 1.0 1.6 3.6 6.4 11.7 6.6 8.7 6.2 4.8 5.2 2.7 3.2 2.8 3.3 3.6 3.5 3.3 3.1 2.7 2.5 2.5 2.8
0.0 3.8 5.4 7.3 4.2 5.7 7.3 3.1 5.6 14.4 23.5 14.1 14.0 12.7 4.8 2.3 0.6 0.2 0.4 0.2 0.5 0.7 1.2 1.8 1.8 2.5 3.1 3.7 8.2 14.7 6.4 5.8 7.3 7.4 4.8 4.3 4.6 5.0 4.4 3.0 2.9 1.2 0.8 0.9
6.9 7.2 5.6 4.0 1.9 1.4 2.9 3.6 2.7 11.0 6.2 10.8 7.4 4.4 2.8 1.9 1.1 1.0 0.9 0.6 0.8 1.4 1.3 1.7 1.9 2.1 1.9 1.8 2.1 3.5 3.6 5.7 6.1 9.1 8.4 8.2 6.3 4.2 3.3 3.1 2.0 1.1 1.2 1.3
6.0 9.1 8.5 11.7 3.4 4.8 7.2 5.0 3.2 5.2 4.6 4.3 3.3 2.0 1.1 0.3 0.5 0.8 0.9 1.2 1.4 1.5 1.3 1.4 1.3 0.6 0.7 1.0 1.6 1.2 1.6 3.9 3.4 4.7 9.3 7.7 6.8 7.0 4.5 3.0 2.1 2.3 2.2 1.2
8.8 14.1 14.0 13.4 3.8 5.5 10.0 6.7 4.3 3.6 1.6 1.5 1.4 1.0 0.6 0.4 0.6 1.2 1.2 1.4 1.8 1.4 1.1 0.9 1.1 1.0 1.0 0.9 0.8 0.8 1.1 1.8 2.4 2.5 7.9 9.6 8.7 6.9 8.5 1.4 1.5 2.9 5.5 5.2
10.3 12.1 11.8 11.8 5.2 12.0 6.0 3.2 1.7 0.7 0.6 0.3 0.3 0.5 0.3 0.5 1.4 1.8 1.8 1.4 1.3 1.0 0.8 0.7 0.9 0.9 0.8 0.1 0.2 0.0 0.0 0.2 1.1 0.4 3.3 4.7 4.8 6.1 16.7 11.6 12.8 14.6 8.7 10.6
4.2 6.3 11.0 10.1 7.0 3.5 1.8 0.3 0.6 6.6 4.5 0.4 0.4 0.4 0.5 0.5 0.8 1.6 1.5 2.0 2.7 4.0 4.7 4.4 2.7 2.6 0.3 0.4 0.3 0.0 0.0 0.0 0.0 0.1 0.7 1.4 4.4 6.9 17.4 22.7 22.8 22.7 24.8 20.4
2.3 4.2 7.8 7.6 7.4 4.7 0.2 0.0 0.0 0.2 11.6 0.5 0.2 0.0 0.1 0.3 3.0 6.5 3.1 3.3 4.3 7.9 5.6 5.7 4.6 1.2 1.8 3.3 2.0 2.9 1.1 0.0 0.3 0.4 0.3 0.0 0.0 1.3 4.8 11.7 16.0 16.9 15.4 17.2
6.1 12.5 14.9 8.5 7.5 0.8 0.6 0.2 0.0 10.3 11.2 4.7 1.6 2.9 3.4 3.2 6.5 8.2 7.1 5.7 6.1 8.2 11.9 7.9 7.1 5.8 6.1 7.1 3.2 3.7 7.4 6.7 4.4 4.4 3.8 2.1 0.0 0.5 2.5 5.3 8.5 7.1 6.0 7.9
2.7 10.6 9.9 9.4 14.9 6.5 0.0 1.0 4.8 3.0 5.5 7.3 8.5 10.2 11.5 10.9 12.3 10.7 8.6 6.3 5.3 4.9 7.2 11.4 9.3 8.9 7.8 8.8 9.6 8.0 8.9 14.0 12.6 8.5 9.7 5.5 5.3 8.8 9.7 9.5 8.7 10.6 7.5 6.9
5.5 3.7 6.5 6.2 5.4 2.4 0.8 1.3 1.8 1.3 4.4 6.7 6.8 6.9 8.5 10.8 10.6 7.9 5.3 3.6 3.3 4.2 4.3 5.3 9.1 9.7 7.7 5.9 8.4 9.8 11.4 12.6 14.1 14.4 13.6 14.8 14.2 12.9 15.5 15.7 12.7 11.8 10.8 8.5
5.8 2.5 4.3 4.3 5.5 1.8 1.1 1.1 2.1 3.1 5.3 5.0 4.7 4.6 4.6 4.9 5.4 5.2 3.9 2.7 2.2 2.1 2.3 2.5 3.1 5.1 7.1 7.8 6.7 7.3 11.6 10.8 11.1 10.8 13.0 15.3 16.3 16.7 15.9 17.3 17.3 15.6 15.5 13.8
9.0 4.0 3.6 9.2 13.9 2.1 3.5 5.6 4.5 4.7 4.5 3.9 4.1 3.7 3.2 3.0 3.1 3.2 3.1 2.9 2.6 2.5 2.0 1.8 1.6 1.7 4.3 6.0 7.4 9.6 11.2 11.1 11.2 9.7 13.9 14.9 13.5 13.0 13.2 14.6 14.0 13.1 14.6 11.4
6.3 8.2 8.3 10.5 8.2 9.1 7.0 5.9 4.8 3.5 3.2 2.5 1.5 1.4 1.5 1.5 1.5 1.1 0.5 0.7 0.6 0.7 0.7 0.9 0.6 0.6 1.6 1.2 1.6 3.1 4.5 5.4 8.7 12.2 12.6 14.7 16.0 13.2 12.8 12.9 14.2 13.3 13.8 12.3